| time (UTC) | temp F | wind direction | speed MPH | gust MPH | rain 1hr in | rain 24hr in | rain mn in | humidity % | barometer mb |
| 20260905151532 | 81 | 288 | 4.0 | 7.0 | 0.00 | 2.35 | 0.00 | 90 | 1016.4 |
| 20260905150004 | 80 | 246 | 3.0 | 5.0 | 0.00 | 2.35 | 0.00 | 93 | 1016.4 |
| 20260905144508 | 79 | 309 | 3.0 | 6.0 | 0.00 | 2.35 | 0.00 | 95 | 1016.3 |
| 20260905143013 | 78 | 330 | 2.0 | 5.0 | 0.00 | 2.35 | 0.00 | 97 | 1016.2 |
| 20260905141535 | 77 | 357 | 2.0 | 7.0 | 0.00 | 2.35 | 0.00 | 97 | 1016.3 |
| 20260905140023 | 77 | 327 | 3.0 | 5.0 | 0.00 | 2.35 | 0.00 | 98 | 1016.3 |
| 20260905134503 | 77 | 337 | 1.0 | 3.0 | 0.00 | 2.35 | 0.00 | 98 | 1016.1 |
| 20260905133010 | 76 | 263 | 2.0 | 4.0 | 0.00 | 2.35 | 0.00 | 98 | 1016.0 |
| 20260905131536 | 76 | 269 | 1.0 | 4.0 | 0.00 | 2.35 | 0.00 | 98 | 1016.1 |
| 20260905130022 | 75 | 344 | 1.0 | 3.0 | 0.00 | 2.35 | 0.00 | 98 | 1016.2 |
| 20260905124526 | 75 | 326 | 0.0 | 2.0 | 0.00 | 2.35 | 0.00 | 97 | 1016.0 |
| 20260905123009 | 75 | 1 | 1.0 | 2.0 | 0.00 | 2.35 | 0.00 | 97 | 1015.9 |
| 20260905121516 | 75 | 1 | 1.0 | 3.0 | 0.00 | 2.35 | 0.00 | 97 | 1015.8 |
| 20260905120023 | 75 | 331 | 1.0 | 2.0 | 0.00 | 2.35 | 0.00 | 97 | 1015.5 |
| 20260905114528 | 75 | 328 | 2.0 | 2.0 | 0.00 | 2.35 | 0.00 | 97 | 1015.3 |
| 20260905113032 | 75 | 292 | 0.0 | 2.0 | 0.00 | 2.35 | 0.00 | 97 | 1015.0 |
| 20260905111519 | 75 | 293 | 1.0 | 2.0 | 0.00 | 2.35 | 0.00 | 97 | 1014.8 |
| 20260905110016 | 75 | 276 | 0.0 | 1.0 | 0.00 | 2.35 | 0.00 | 97 | 1014.9 |
| 20260905104525 | 75 | 276 | 0.0 | 2.0 | 0.00 | 2.35 | 0.00 | 97 | 1014.8 |
| 20260905103032 | 75 | 276 | 0.0 | 2.0 | 0.00 | 2.35 | 0.00 | 97 | 1014.7 |
| 20260905101535 | 75 | 276 | 0.0 | 2.0 | 0.00 | 2.35 | 0.00 | 97 | 1014.5 |
| 20260905100022 | 75 | 276 | 1.0 | 2.0 | 0.00 | 2.35 | 0.00 | 97 | 1014.6 |
| 20260905094503 | 75 | 276 | 0.0 | 2.0 | 0.00 | 2.35 | 0.00 | 97 | 1014.6 |
| 20260905093004 | 75 | 257 | 1.0 | 4.0 | 0.00 | 2.35 | 0.00 | 97 | 1014.6 |
| 20260905091508 | 75 | 241 | 0.0 | 2.0 | 0.00 | 2.35 | 0.00 | 97 | 1014.7 |
| 20260905090019 | 75 | 275 | 2.0 | 3.0 | 0.00 | 2.35 | 0.00 | 97 | 1014.6 |
| 20260905084523 | 75 | 245 | 0.0 | 2.0 | 0.00 | 2.35 | 0.00 | 97 | 1014.5 |
| 20260905083004 | 75 | 229 | 0.0 | 2.0 | 0.00 | 2.35 | 0.00 | 97 | 1014.3 |
| 20260905081507 | 75 | 240 | 2.0 | 3.0 | 0.00 | 2.35 | 0.00 | 97 | 1014.2 |
| 20260905080012 | 75 | 236 | 3.0 | 4.0 | 0.00 | 2.35 | 0.00 | 97 | 1014.3 |
| 20260905074518 | 75 | 204 | 0.0 | 2.0 | 0.00 | 2.35 | 0.00 | 97 | 1014.4 |
| 20260905073002 | 75 | 198 | 2.0 | 4.0 | 0.00 | 2.35 | 0.00 | 97 | 1014.5 |
| 20260905071507 | 75 | 178 | 1.0 | 3.0 | 0.00 | 2.35 | 0.00 | 97 | 1014.8 |
| 20260905070011 | 75 | 177 | 2.0 | 3.0 | 0.00 | 2.35 | 0.00 | 97 | 1014.8 |
| 20260905064518 | 75 | 189 | 1.0 | 2.0 | 0.00 | 2.35 | 0.00 | 97 | 1014.9 |
| 20260905063027 | 75 | 189 | 1.0 | 4.0 | 0.00 | 2.35 | 0.00 | 97 | 1015.0 |
| 20260905061504 | 75 | 253 | 0.0 | 2.0 | 0.00 | 2.35 | 0.00 | 97 | 1015.1 |
| 20260905060010 | 74 | 253 | 0.0 | 0.0 | 0.00 | 2.35 | 0.00 | 97 | 1015.2 |
| 20260905054522 | 74 | 253 | 0.0 | 2.0 | 0.00 | 2.35 | 0.00 | 97 | 1015.4 |
| 20260905053023 | 75 | 253 | 0.0 | 2.0 | 0.00 | 2.35 | 0.00 | 97 | 1015.5 |
| 20260905051535 | 75 | 253 | 0.0 | 0.0 | 0.00 | 2.35 | 0.00 | 97 | 1015.4 |
| 20260905050008 | 75 | 253 | 0.0 | 2.0 | 0.00 | 2.35 | 0.00 | 97 | 1015.4 |
| 20260905044515 | 75 | 253 | 0.0 | 1.0 | 0.00 | 2.35 | 0.00 | 97 | 1015.6 |
| 20260905043022 | 75 | 253 | 0.0 | 2.0 | 0.00 | 2.35 | 0.00 | 97 | 1015.5 |
| 20260905041528 | 75 | 357 | 0.0 | 2.0 | 0.00 | 2.35 | 0.00 | 97 | 1015.4 |
| 20260905040032 | 75 | 357 | 1.0 | 2.0 | 0.00 | 2.35 | 0.00 | 97 | 1015.5 |
| 20260905034503 | 75 | 179 | 0.0 | 2.0 | 0.00 | 2.35 | 2.35 | 97 | 1015.7 |
| 20260905033002 | 75 | 179 | 0.0 | 2.0 | 0.00 | 2.35 | 2.35 | 97 | 1015.9 |
| 20260905031508 | 75 | 179 | 0.0 | 2.0 | 0.00 | 2.35 | 2.35 | 97 | 1016.1 |
| 20260905030004 | 75 | 179 | 2.0 | 3.0 | 0.00 | 2.35 | 2.35 | 97 | 1016.1 |
| 20260905024503 | 75 | 24 | 1.0 | 2.0 | 0.00 | 2.35 | 2.35 | 97 | 1016.4 |
| 20260905023007 | 76 | 24 | 1.0 | 1.0 | 0.00 | 2.35 | 2.35 | 97 | 1016.4 |
| 20260905021505 | 76 | 24 | 1.0 | 2.0 | 0.00 | 2.35 | 2.35 | 97 | 1016.6 |
| 20260905020006 | 76 | 190 | 2.0 | 3.0 | 0.00 | 2.35 | 2.35 | 97 | 1016.4 |
| 20260905014509 | 76 | 193 | 0.0 | 2.0 | 0.00 | 2.35 | 2.35 | 97 | 1016.3 |
| 20260905013005 | 76 | 82 | 1.0 | 2.0 | 0.00 | 2.35 | 2.35 | 97 | 1016.3 |
| 20260905011503 | 76 | 186 | 0.0 | 2.0 | 0.00 | 2.35 | 2.35 | 97 | 1016.2 |
| 20260905010005 | 76 | 186 | 2.0 | 2.0 | 0.00 | 2.35 | 2.35 | 97 | 1016.2 |
| 20260905004510 | 76 | 80 | 0.0 | 2.0 | 0.00 | 2.35 | 2.35 | 97 | 1015.9 |
| 20260905003013 | 76 | 80 | 1.0 | 2.0 | 0.00 | 2.35 | 2.35 | 96 | 1015.6 |
| 20260905001516 | 76 | 198 | 1.0 | 3.0 | 0.00 | 2.35 | 2.35 | 97 | 1015.5 |
| 20260905000034 | 76 | 201 | 3.0 | 4.0 | 0.00 | 2.35 | 2.35 | 97 | 1015.5 |
| 20260904234505 | 76 | 167 | 2.0 | 5.0 | 0.00 | 2.35 | 2.35 | 97 | 1015.6 |
| 20260904233009 | 76 | 173 | 0.0 | 3.0 | 0.00 | 2.35 | 2.35 | 97 | 1015.8 |
| 20260904231515 | 76 | 154 | 1.0 | 2.0 | 0.00 | 2.35 | 2.35 | 97 | 1015.8 |
| 20260904230002 | 76 | 203 | 1.0 | 4.0 | 0.00 | 2.35 | 2.35 | 97 | 1015.6 |
| 20260904224506 | 76 | 264 | 2.0 | 6.0 | 0.00 | 2.35 | 2.35 | 97 | 1015.7 |
| 20260904223016 | 76 | 187 | 5.0 | 10.0 | 0.01 | 2.35 | 2.35 | 96 | 1016.1 |
| 20260904221515 | 76 | 187 | 0.0 | 2.0 | 0.02 | 2.35 | 2.35 | 97 | 1015.9 |
| 20260904220004 | 76 | 187 | 1.0 | 2.0 | 0.04 | 2.35 | 2.35 | 97 | 1015.8 |
| 20260904214504 | 76 | 187 | 0.0 | 2.0 | 0.07 | 2.35 | 2.35 | 96 | 1015.8 |
| 20260904213009 | 75 | 186 | 0.0 | 2.0 | 0.08 | 2.34 | 2.34 | 96 | 1015.6 |
| 20260904211515 | 75 | 188 | 2.0 | 2.0 | 0.07 | 2.33 | 2.33 | 96 | 1015.9 |
| 20260904210024 | 75 | 175 | 2.0 | 4.0 | 0.06 | 2.32 | 2.32 | 96 | 1016.2 |
| 20260904204503 | 75 | 198 | 1.0 | 4.0 | 0.05 | 2.29 | 2.29 | 96 | 1016.1 |
| 20260904203008 | 75 | 202 | 3.0 | 5.0 | 0.06 | 2.27 | 2.27 | 96 | 1015.5 |
| 20260904201510 | 76 | 95 | 4.0 | 6.0 | 0.14 | 2.27 | 2.27 | 96 | 1015.2 |
| 20260904200034 | 76 | 66 | 2.0 | 3.0 | 0.24 | 2.26 | 2.26 | 96 | 1015.7 |
| 20260904194522 | 76 | 134 | 1.0 | 4.0 | 0.29 | 2.24 | 2.24 | 96 | 1016.3 |
| 20260904193009 | 76 | 115 | 1.0 | 6.0 | 1.05 | 2.21 | 2.21 | 96 | 1016.5 |
| 20260904191513 | 77 | 195 | 2.0 | 3.0 | 1.54 | 2.14 | 2.13 | 96 | 1016.8 |
| 20260904190031 | 76 | 181 | 1.0 | 4.0 | 1.84 | 2.04 | 2.02 | 95 | 1017.1 |
| 20260904184521 | 76 | 19 | 4.0 | 9.0 | 1.95 | 1.97 | 1.95 | 95 | 1016.5 |
| 20260904183026 | 77 | 289 | 4.0 | 12.0 | 1.15 | 1.16 | 1.15 | 94 | 1017.2 |
| 20260904181512 | 76 | 330 | 13.0 | 20.0 | 0.58 | 0.61 | 0.58 | 93 | 1016.4 |
| 20260904180002 | 81 | 283 | 11.0 | 14.0 | 0.18 | 0.20 | 0.18 | 86 | 1016.9 |
| 20260904174505 | 85 | 52 | 5.0 | 14.0 | 0.00 | 0.02 | 0.00 | 80 | 1016.3 |
| 20260904173004 | 87 | 68 | 5.0 | 12.0 | 0.00 | 0.02 | 0.00 | 81 | 1016.3 |
| 20260904171505 | 86 | 39 | 6.0 | 13.0 | 0.00 | 0.02 | 0.00 | 79 | 1016.4 |
| 20260904170007 | 91 | 183 | 3.0 | 10.0 | 0.00 | 0.03 | 0.00 | 70 | 1016.4 |
| 20260904164503 | 91 | 181 | 1.0 | 8.0 | 0.00 | 0.03 | 0.00 | 72 | 1016.6 |
| 20260904163007 | 89 | 136 | 1.0 | 7.0 | 0.00 | 0.03 | 0.00 | 75 | 1016.9 |
| 20260904161505 | 87 | 82 | 2.0 | 3.0 | 0.00 | 0.03 | 0.00 | 77 | 1017.2 |
| 20260904160006 | 87 | 151 | 3.0 | 5.0 | 0.00 | 0.03 | 0.00 | 77 | 1017.4 |
| 20260904154514 | 87 | 75 | 2.0 | 5.0 | 0.00 | 0.03 | 0.00 | 79 | 1017.6 |
| 20260904153007 | 87 | 89 | 1.0 | 4.0 | 0.00 | 0.03 | 0.00 | 78 | 1017.5 |